Temperature
18 18 19 19 19 19 18 18 18 17 16 16 15 15 15 14 14 14 14 15 15 15 15 14 14 14 14 14 14 14 14 14 14 15 15 16 16 16 16 16 15 13 13
19 19 19 19 20 20 19 19 19 18 17 15 15 15 14 14 14 14 15 15 15 14 14 14 14 14 14 14 14 14 14 14 14 14 15 15 15 15 15 15 14 13 13
19 19 19 20 20 20 19 19 19 18 17 15 14 14 14 14 14 15 15 15 15 14 13 13 14 14 14 14 14 15 14 14 14 14 14 14 14 14 14 14 14 14 13
20 19 19 19 20 20 20 20 19 18 17 15 14 14 14 14 14 15 15 15 15 14 14 14 14 14 15 15 15 15 14 14 13 14 14 14 14 14 14 14 14 14 13
20 20 19 19 19 19 19 20 19 19 17 16 15 14 14 14 15 15 15 15 15 15 15 15 15 15 15 14 14 14 13 13 13 13 13 13 13 13 14 14 14 14 14
20 20 19 19 19 19 19 19 19 19 18 16 15 14 14 14 14 14 14 14 14 14 14 14 14 14 14 14 14 14 13 13 13 13 13 12 12 13 13 13 13 14 13
20 19 19 18 18 19 19 19 19 19 18 16 15 15 14 14 14 14 14 14 14 14 14 14 14 14 14 14 14 14 14 13 13 13 13 12 12 12 13 13 13 13 13
20 19 18 17 18 18 18 18 19 19 18 17 15 15 15 14 14 14 14 14 14 14 14 14 14 14 14 14 14 14 14 13 13 13 12 12 12 12 13 13 13 13 12
19 18 18 17 17 18 18 18 18 18 18 17 16 15 14 14 14 14 14 14 14 14 14 14 14 14 14 14 14 14 14 13 13 13 13 12 12 12 13 13 13 12 12
18 18 17 17 17 17 17 17 17 18 17 16 15 15 14 14 14 14 14 14 14 14 14 14 14 14 14 14 14 14 14 13 13 13 12 12 12 12 12 12 11 11 11
18 18 17 17 17 17 17 16 16 17 17 16 15 15 14 14 14 14 14 14 14 14 14 14 14 13 13 13 14 14 14 14 13 13 12 12 12 11 11 11 11 10 10
18 18 17 17 17 16 16 16 16 16 17 17 16 15 14 14 14 14 14 14 14 14 14 14 13 13 13 13 14 13 14 14 13 12 11 11 11 10 10 10 9 9 9
18 18 17 17 17 16 16 16 16 16 16 16 16 15 15 15 14 14 14 14 14 14 14 14 13 13 13 14 14 13 13 13 12 11 11 10 10 10 9 9 9 9 9
19 18 18 17 17 16 16 16 16 16 16 16 16 16 15 15 15 14 14 14 14 14 14 13 13 13 13 13 13 13 13 12 11 10 10 10 10 9 9 9 9 9 9
19 19 18 18 17 17 16 16 16 16 15 16 16 16 16 15 15 14 14 13 13 13 13 13 13 13 13 13 13 13 12 12 11 10 10 9 9 9 9 9 9 9 9
18 18 18 18 18 17 17 16 16 16 15 15 15 15 15 15 14 14 13 13 13 13 13 12 13 13 13 13 13 12 12 11 10 10 9 9 9 8 8 8 8 8 8
19 18 18 18 18 18 18 17 16 16 15 15 14 14 14 14 14 14 13 13 13 12 12 12 13 13 13 13 13 12 11 10 10 9 9 8 8 8 8 8 8 8 8
19 19 18 18 18 18 18 17 17 16 15 15 14 14 14 13 13 13 13 13 12 12 12 12 13 13 13 13 12 12 11 10 9 8 8 8 8 8 8 8 8 8 7
19 19 19 18 18 18 18 18 17 16 15 15 14 14 13 13 13 13 13 12 12 12 12 12 13 13 13 13 12 11 10 9 9 8 8 7 7 7 7 7 7 7 7
18 19 19 18 18 18 17 17 17 16 16 15 14 14 13 13 13 13 12 12 12 12 12 12 12 12 13 12 12 11 9 9 8 8 7 7 7 7 7 6 6 6 6
18 18 18 18 18 18 17 17 17 16 16 15 15 14 14 13 13 12 12 12 12 12 12 12 12 12 12 12 11 10 9 8 8 7 7 7 6 6 6 6 5 5 5
18 18 18 18 18 18 17 17 17 17 17 16 15 14 14 14 13 13 12 12 12 12 12 12 12 12 12 12 11 10 9 8 7 7 7 7 6 6 5 5 5 5 5
17 17 17 17 17 17 17 17 17 16 16 16 15 14 14 14 13 13 13 12 12 12 12 12 12 11 12 11 11 11 10 9 8 7 7 6 6 6 5 5 4 4 4
17 17 17 17 17 17 17 17 17 17 16 16 16 15 15 14 13 13 13 12 12 12 11 11 11 11 11 11 11 10 10 10 9 8 7 6 6 5 5 4 4 4 4
16 16 16 17 17 16 16 16 17 17 17 17 16 16 15 14 13 13 13 12 12 11 11 11 11 11 11 10 10 10 9 9 8 7 7 6 5 5 4 4 4 3 2
16 16 16 16 16 16 16 16 16 16 16 16 16 15 15 14 13 12 12 12 11 11 11 11 11 10 10 10 9 9 8 8 7 6 5 5 4 5 4 4 3 2 2
Wind_Speed
8 13 20 19 19 18 17 16 16 16 17 18 19 19 19 18 16 14 13 11 11 10 11 12 14 15 14 14 12 10 9 9 9 8 8 8 9 9 8 8 7 5 5
11 17 21 20 19 18 17 16 16 16 16 17 18 19 18 17 15 14 13 12 11 10 11 11 12 12 12 11 10 8 7 8 7 5 4 3 4 7 7 7 7 6 5
16 18 21 21 20 19 18 17 17 16 17 17 18 18 18 16 15 14 13 12 11 11 11 11 11 11 10 9 8 7 7 6 5 3 2 3 2 5 6 5 5 4 3
17 18 19 21 20 19 18 18 18 18 18 18 18 18 17 16 15 14 13 13 12 11 11 10 10 9 9 8 7 6 5 5 5 4 2 7 4 4 4 3 2 2 1
14 18 19 21 20 19 18 18 19 18 18 18 18 18 17 16 15 14 13 12 11 10 10 10 9 9 8 7 6 5 6 8 9 6 3 9 5 3 3 2 1 0 1
12 16 20 21 20 19 18 19 19 18 18 17 17 17 17 16 15 14 13 12 10 9 9 8 8 8 7 6 5 5 7 10 10 6 8 7 2 2 2 1 1 1 2
13 15 20 21 20 19 18 18 19 18 18 17 16 16 16 15 15 14 13 11 9 7 7 7 8 7 6 5 4 6 9 11 11 10 7 3 1 3 2 3 3 3 3
17 16 19 21 20 20 18 18 18 19 18 17 15 15 14 14 15 15 14 12 9 7 6 7 7 7 5 4 5 7 9 10 8 9 6 4 4 3 4 4 4 4 5
14 14 15 18 19 20 19 18 18 19 18 17 16 14 12 12 15 16 14 12 9 8 7 7 7 6 5 4 6 8 10 10 10 7 4 4 4 3 3 3 4 5 7
12 14 12 15 16 16 17 18 18 18 17 16 15 13 11 11 15 17 15 12 10 8 7 7 6 6 4 4 7 9 11 12 12 7 4 3 4 5 5 6 8 12 14
12 11 11 11 13 15 15 17 17 17 17 17 16 14 10 10 13 15 14 13 10 8 6 5 5 4 3 5 8 9 11 11 10 7 5 8 11 13 14 15 16 17 18
15 14 12 13 12 14 15 14 14 15 15 16 15 14 11 11 12 12 15 14 12 9 6 4 4 3 2 5 7 9 9 9 9 7 8 12 14 15 16 16 16 16 16
17 16 15 14 12 13 10 12 11 12 13 14 16 15 13 11 10 10 11 10 9 7 4 2 5 5 5 5 6 8 9 9 8 8 9 13 13 13 14 14 13 13 13
15 18 16 15 14 13 12 11 11 10 10 10 14 15 12 8 8 8 8 9 8 6 4 5 5 6 6 6 6 7 7 8 9 9 11 14 13 13 12 12 12 11 11
14 17 17 17 16 14 10 9 11 10 10 12 13 14 14 8 6 7 7 8 7 6 7 6 5 5 5 6 6 6 6 8 9 10 12 14 14 12 11 11 11 10 10
12 15 16 19 18 17 15 13 10 11 12 13 12 14 16 13 9 7 5 6 7 8 8 7 6 5 4 5 5 6 6 8 10 10 12 13 13 12 11 10 10 11 11
11 13 16 19 19 19 18 16 11 12 13 11 12 16 17 15 13 10 6 5 8 10 10 9 7 6 4 4 5 4 4 6 9 10 11 12 12 11 10 10 11 12 12
9 11 15 17 18 19 17 15 10 12 12 11 13 16 17 16 17 12 7 6 10 11 9 5 4 4 4 4 3 2 2 5 8 9 9 10 9 9 9 10 11 12 13
10 11 14 15 18 19 17 14 12 10 10 11 13 13 15 17 18 14 8 8 13 8 5 4 3 3 3 2 2 2 2 3 5 7 6 7 8 8 9 9 10 10 11
12 11 14 16 17 17 13 10 9 9 10 9 10 12 16 16 18 15 9 10 11 6 5 5 5 3 3 1 3 4 3 2 3 3 5 6 7 8 8 7 6 6 8
9 9 11 15 16 15 12 12 12 12 11 10 8 13 16 17 18 14 9 8 7 7 7 7 4 4 3 2 3 3 4 4 3 3 3 3 5 6 6 4 3 4 4
9 9 10 13 15 15 15 15 11 11 7 7 7 10 15 18 18 16 13 11 9 7 7 6 4 3 2 2 3 3 1 2 3 3 2 3 4 5 5 5 6 5 4
9 9 8 11 14 16 15 9 6 5 4 3 6 9 11 16 18 16 15 11 10 8 8 6 5 6 4 2 2 3 4 5 2 3 3 3 3 3 3 6 9 10 9
10 9 9 9 12 14 14 14 15 12 9 9 10 8 10 12 15 17 16 13 11 8 8 6 5 4 5 3 2 2 2 3 3 1 2 1 1 2 4 6 9 11 12
8 8 7 7 10 12 14 17 18 11 8 6 8 10 10 9 10 14 15 13 11 9 9 8 6 5 4 4 3 2 2 3 2 2 2 4 4 3 4 4 6 7 11
4 5 5 5 8 11 14 16 18 16 12 13 13 13 11 9 9 11 13 11 10 10 10 9 7 7 4 4 4 3 3 2 2 2 2 3 4 4 4 4 2 5 7
Wind_Direction
160 163 151 145 137 131 128 127 126 127 129 131 131 129 125 121 118 115 112 110 109 107 104 95 92 105 108 105 101 96 90 85 86 85 77 71 76 83 85 81 83 95 100
152 159 152 147 140 135 132 130 130 131 133 134 134 132 128 123 119 115 113 112 111 112 112 106 100 101 101 101 99 95 90 89 90 90 89 72 70 89 92 90 87 92 92
150 156 153 150 144 139 137 135 134 134 136 137 136 133 129 126 121 116 114 114 113 112 112 110 105 101 101 100 96 92 89 85 82 80 153 171 126 104 100 91 87 83 85
152 154 155 153 147 143 141 139 137 134 134 134 134 134 132 129 125 121 120 120 117 112 109 108 107 104 100 94 89 83 70 47 32 24 138 183 179 115 108 99 84 69 50
151 152 158 155 150 147 145 144 141 138 137 137 138 139 137 135 132 128 127 126 124 120 115 112 111 109 103 95 84 66 39 19 11 12 145 178 197 117 102 97 78 27 270
147 150 160 158 154 151 150 150 146 143 142 142 144 147 147 145 140 137 135 136 136 132 126 122 121 117 108 97 77 49 29 18 19 40 132 161 188 92 87 77 19 320 278
150 153 162 162 159 157 157 156 153 150 149 148 149 153 155 155 151 148 146 148 146 140 132 131 129 122 111 91 58 34 23 25 44 89 111 115 49 52 39 30 17 13 4
155 158 166 167 164 163 162 162 161 158 156 154 154 157 160 164 163 158 156 157 154 146 138 135 131 122 109 83 50 34 26 36 71 97 85 60 39 32 23 18 9 7 14
156 160 168 171 170 168 168 168 167 164 162 160 158 159 166 175 174 167 164 162 158 150 140 135 134 126 112 81 51 40 41 64 98 104 66 40 26 25 20 19 28 51 59
161 166 169 172 172 171 171 173 172 169 166 165 161 159 167 181 177 168 166 163 158 153 146 139 134 125 103 61 41 49 65 82 93 83 51 22 38 53 66 71 75 76 73
171 174 173 171 173 172 173 178 176 173 171 167 163 164 158 154 158 161 162 160 159 159 156 145 135 127 95 39 35 60 76 96 97 81 60 70 74 76 77 74 72 70 66
182 183 181 178 176 173 177 177 177 176 174 168 169 169 159 151 153 160 162 163 164 166 162 149 124 103 81 46 54 69 83 109 97 76 74 83 83 80 74 68 64 62 60
184 185 187 184 180 177 177 175 178 178 176 176 178 177 169 165 162 161 162 163 165 160 145 109 91 83 91 79 70 74 93 111 100 79 81 86 85 82 75 69 64 59 55
183 189 188 186 183 182 180 181 181 181 183 186 190 184 173 172 170 170 167 165 165 157 139 120 104 96 91 80 75 82 96 118 110 93 89 89 86 83 78 72 65 58 52
192 192 189 187 186 184 181 183 185 187 190 194 194 190 182 176 174 172 170 167 164 152 137 122 108 96 76 62 59 79 98 127 122 104 97 93 89 84 77 69 61 54 46
207 199 192 190 189 185 186 188 188 190 191 193 197 191 186 180 175 169 161 159 151 146 135 119 110 96 71 64 54 66 95 128 130 116 107 100 95 89 79 68 58 48 40
210 202 194 194 190 188 189 190 188 189 189 191 196 193 186 179 171 163 152 143 144 137 122 108 98 86 67 55 45 45 85 127 140 129 121 115 107 96 84 69 56 43 31
206 201 198 197 192 192 191 191 188 187 188 190 190 189 183 172 162 154 147 143 144 133 121 110 102 80 58 51 37 22 64 119 138 146 139 131 121 106 89 75 60 45 29
218 202 200 199 194 195 194 190 187 183 185 187 185 183 177 165 159 153 149 146 142 128 119 116 92 101 76 52 39 58 65 113 131 147 147 141 130 117 100 83 67 49 32
235 212 204 202 198 195 193 187 184 182 183 183 183 179 169 163 158 152 147 145 139 125 121 114 107 85 90 88 66 58 41 74 109 134 150 142 132 118 106 90 67 45 31
242 227 210 206 202 194 188 187 187 190 189 186 180 172 166 162 159 153 148 146 143 141 145 138 121 103 68 70 90 53 19 33 72 80 104 113 112 104 96 75 41 27 25
239 232 215 210 205 199 195 193 192 187 183 178 164 161 164 163 162 159 155 157 151 141 145 153 143 125 83 56 123 118 82 344 2 25 59 96 93 76 55 28 14 3 345
244 238 226 213 210 205 198 180 136 101 86 121 158 167 170 168 165 162 161 156 153 151 159 161 152 140 136 61 70 143 154 201 260 335 23 72 82 74 37 21 9 351 334
253 249 239 222 210 205 195 180 173 178 180 184 177 168 165 167 166 162 160 157 156 153 153 153 148 144 138 143 93 60 115 144 153 242 321 339 4 48 18 359 349 351 354
264 264 256 237 217 204 197 188 186 185 176 151 151 151 158 161 162 160 158 156 156 153 149 142 138 137 136 148 150 135 97 69 90 143 264 314 330 333 348 331 343 2 15
285 280 269 244 227 207 199 194 191 179 159 153 159 163 163 159 159 160 158 156 155 152 149 143 137 135 130 130 128 129 138 140 146 147 209 273 291 295 306 308 345 8 30
Height
1514 1516 1518 1520 1521 1523 1524 1524 1525 1526 1527 1529 1530 1531 1532 1532 1532 1533 1532 1532 1531 1531 1531 1531 1533 1534 1534 1535 1535 1536 1536 1536 1535 1535 1535 1535 1534 1534 1533 1533 1533 1533 1533
1513 1516 1518 1519 1521 1523 1523 1524 1525 1526 1527 1528 1530 1531 1532 1532 1532 1532 1532 1532 1531 1530 1530 1531 1533 1534 1535 1535 1536 1536 1535 1535 1535 1535 1535 1534 1534 1533 1533 1533 1533 1533 1533
1514 1515 1517 1519 1521 1522 1523 1524 1525 1525 1526 1528 1530 1531 1532 1533 1533 1533 1532 1532 1531 1531 1531 1532 1533 1535 1535 1536 1536 1536 1536 1535 1535 1535 1535 1535 1534 1534 1534 1534 1533 1533 1533
1514 1516 1517 1519 1521 1522 1523 1524 1525 1525 1526 1528 1530 1531 1532 1533 1534 1534 1533 1533 1532 1532 1532 1533 1534 1535 1535 1536 1536 1536 1537 1537 1536 1536 1536 1535 1535 1535 1535 1535 1534 1534 1533
1514 1516 1517 1519 1521 1523 1523 1524 1525 1526 1526 1528 1529 1531 1532 1533 1534 1534 1534 1534 1534 1534 1534 1534 1535 1536 1536 1536 1537 1537 1537 1537 1537 1536 1536 1536 1536 1536 1535 1535 1534 1534 1534
1514 1516 1518 1520 1521 1523 1523 1524 1525 1526 1527 1528 1529 1531 1532 1534 1535 1535 1535 1536 1536 1536 1536 1536 1537 1537 1538 1538 1538 1538 1538 1537 1537 1537 1537 1537 1537 1536 1536 1535 1534 1534 1534
1514 1516 1518 1520 1522 1523 1523 1524 1525 1526 1527 1528 1529 1531 1533 1534 1535 1536 1537 1537 1537 1538 1538 1538 1539 1539 1539 1539 1539 1539 1538 1537 1537 1537 1537 1538 1538 1537 1536 1535 1534 1534 1534
1514 1516 1518 1520 1522 1523 1524 1524 1525 1526 1527 1528 1530 1531 1533 1535 1536 1537 1537 1538 1539 1539 1539 1540 1540 1540 1540 1540 1539 1539 1538 1538 1538 1538 1538 1538 1538 1537 1536 1535 1534 1533 1533
1514 1516 1518 1520 1522 1523 1524 1524 1525 1526 1527 1529 1530 1532 1534 1535 1536 1537 1538 1539 1539 1540 1540 1540 1540 1540 1540 1540 1539 1539 1538 1538 1538 1538 1538 1538 1537 1536 1535 1535 1534 1533 1532
1514 1516 1517 1519 1521 1522 1523 1524 1525 1526 1527 1529 1530 1532 1534 1535 1536 1537 1538 1539 1540 1540 1540 1540 1541 1540 1540 1539 1539 1538 1538 1538 1537 1537 1537 1536 1535 1534 1534 1534 1533 1533 1532
1513 1515 1516 1518 1519 1521 1523 1524 1524 1526 1527 1528 1530 1532 1533 1535 1536 1537 1538 1539 1539 1540 1540 1540 1540 1540 1540 1539 1538 1538 1537 1537 1536 1535 1535 1534 1534 1533 1533 1533 1533 1532 1531
1511 1513 1515 1516 1518 1520 1521 1522 1523 1524 1526 1527 1529 1531 1532 1533 1535 1536 1537 1537 1538 1539 1539 1540 1539 1539 1539 1538 1538 1536 1536 1535 1534 1533 1533 1532 1532 1532 1532 1532 1531 1531 1531
1509 1511 1513 1515 1516 1518 1519 1521 1522 1523 1524 1526 1527 1529 1530 1531 1533 1534 1535 1536 1537 1537 1538 1538 1538 1538 1538 1537 1536 1535 1534 1533 1532 1532 1531 1531 1530 1530 1530 1530 1530 1530 1529
1505 1508 1510 1512 1514 1515 1517 1518 1520 1521 1522 1524 1525 1526 1527 1528 1530 1532 1533 1534 1535 1536 1536 1537 1538 1537 1537 1536 1535 1533 1532 1531 1531 1530 1530 1530 1530 1529 1529 1529 1529 1528 1528
1502 1504 1507 1509 1511 1512 1514 1516 1517 1519 1520 1522 1523 1524 1525 1526 1528 1530 1531 1532 1533 1534 1535 1536 1536 1536 1535 1534 1533 1532 1531 1530 1529 1529 1528 1529 1529 1528 1528 1528 1528 1527 1527
1499 1501 1503 1505 1506 1508 1510 1512 1513 1516 1518 1519 1521 1522 1523 1525 1526 1527 1529 1530 1532 1533 1534 1534 1535 1535 1534 1533 1531 1530 1529 1529 1528 1528 1527 1528 1528 1528 1528 1527 1527 1526 1525
1495 1496 1498 1500 1502 1504 1505 1507 1510 1512 1514 1515 1517 1519 1520 1522 1523 1525 1527 1528 1530 1531 1532 1533 1533 1533 1532 1531 1530 1528 1528 1528 1527 1527 1527 1527 1527 1527 1527 1526 1526 1525 1524
1489 1491 1493 1495 1498 1499 1501 1503 1505 1508 1510 1512 1513 1515 1517 1519 1521 1523 1525 1526 1528 1530 1531 1532 1532 1531 1530 1529 1528 1527 1526 1526 1526 1526 1526 1526 1526 1526 1526 1525 1524 1523 1522
1483 1485 1487 1490 1492 1495 1497 1499 1501 1503 1505 1507 1510 1512 1514 1516 1518 1520 1522 1525 1527 1528 1529 1530 1530 1529 1528 1527 1526 1525 1525 1525 1525 1526 1525 1525 1525 1525 1524 1524 1523 1522 1520
1477 1479 1481 1483 1486 1490 1493 1495 1497 1498 1501 1503 1506 1508 1511 1513 1515 1518 1520 1523 1525 1526 1527 1528 1528 1528 1527 1526 1525 1524 1524 1524 1524 1524 1524 1524 1523 1523 1522 1522 1521 1519 1517
1470 1472 1474 1476 1479 1483 1486 1489 1491 1493 1495 1498 1501 1504 1507 1509 1512 1515 1517 1520 1522 1524 1525 1526 1527 1526 1525 1524 1524 1523 1523 1523 1522 1522 1522 1522 1521 1520 1519 1518 1517 1516 1513
1464 1465 1467 1469 1472 1475 1478 1481 1484 1487 1489 1492 1496 1499 1502 1505 1508 1511 1514 1517 1519 1521 1523 1524 1525 1525 1524 1523 1522 1521 1521 1522 1520 1520 1519 1519 1519 1518 1517 1516 1514 1511 1509
1457 1459 1461 1462 1465 1467 1471 1475 1478 1481 1484 1487 1490 1493 1496 1500 1504 1507 1510 1513 1516 1518 1520 1522 1522 1523 1522 1522 1521 1520 1519 1518 1518 1517 1516 1516 1515 1515 1514 1513 1510 1507 1504
1452 1453 1454 1456 1457 1460 1463 1466 1468 1471 1474 1477 1481 1485 1490 1495 1499 1502 1506 1509 1512 1515 1517 1519 1520 1520 1520 1519 1519 1518 1517 1515 1515 1514 1514 1513 1512 1511 1510 1509 1506 1503 1500
1446 1447 1448 1449 1450 1452 1455 1458 1461 1464 1468 1471 1475 1479 1484 1488 1493 1497 1501 1504 1507 1510 1513 1515 1516 1517 1517 1517 1516 1515 1513 1512 1511 1511 1510 1510 1509 1508 1506 1504 1501 1498 1496
1441 1442 1442 1442 1443 1445 1448 1450 1454 1456 1460 1465 1468 1472 1477 1481 1486 1491 1495 1499 1502 1505 1508 1510 1512 1513 1513 1513 1513 1512 1511 1509 1508 1506 1505 1503 1502 1501 1500 1499 1497 1494 1491